Location: Gro� Nordende
(53.7015°N, 9.6484°E)
Time: 05:50:25
(UTC+00:00)

Daily predictions for brighter satellites

Satellite Brightness Start Highest point End
(mag) Time Altitude Azimuth Time Altitude Azimuth Time Altitude Azimuth
SL-14 R/B 3.7 00:01:43 22° SSE 00:03:55 51° E 00:07:41 10° NNE
STARLINK-1243 3.5 00:01:05 10° W 00:05:15 83° S 00:09:25 10° E
PSLV R/B 3.7 00:02:08 10° NNE 00:06:47 86° ESE 00:09:38 23° SSW
Cosmos 1340 Rocket 4.4 00:03:39 10° NW 00:06:51 23° W 00:08:46 17° SW
STARLINK-1197 3.6 00:03:46 10° W 00:07:52 62° SSW 00:11:58 10° ESE
Cosmos 1953 4.2 00:05:09 10° NW 00:07:57 18° W 00:09:56 13° WSW
STARLINK-1236 3.5 00:06:05 10° W 00:10:15 83° S 00:14:25 10° E
Cosmos 1867 4.4 00:06:24 10° WNW 00:11:11 32° WSW 00:13:53 21° SSW
Timation 2 Rocket 4.0 00:05:35 10° NW 00:11:57 66° WSW 00:17:13 14° SSE
STARLINK-1198 3.6 00:08:46 10° W 00:12:52 60° SSW 00:16:57 10° ESE
Cosmos 1892 Rocket 3.5 00:12:32 23° SSW 00:15:17 87° W 00:19:42 10° N
Cosmos 2297 Rocket 2.5 00:11:04 10° NNW 00:16:44 67° NE 00:22:22 10° SE
STARLINK-1199 3.6 00:13:43 10° W 00:17:49 58° SSW 00:21:53 10° ESE
Meteor 2-14 Rocket 4.5 00:13:24 19° S 00:17:54 85° E 00:24:05 10° NNE
Cosmos 1244 Rocket 4.5 00:13:54 19° S 00:18:31 89° W 00:24:45 10° N
Cosmos 1726 Rocket 4.2 00:15:43 10° NNW 00:19:47 40° W 00:22:11 21° SSW
Cosmos 1674 3.4 00:17:42 20° SW 00:19:54 42° WNW 00:23:31 10° N
Lacrosse 4 Rocket 3.4 00:16:11 10° NNW 00:20:10 31° NE 00:24:02 10° E
STARLINK-1269 3.5 00:16:00 10° W 00:20:10 82° S 00:24:20 10° E
SL-16 R/B 2.9 00:14:19 10° SE 00:20:23 63° ENE 00:26:30 10° NNW
STARLINK-60 3.5 00:21:09 29° SSW 00:22:07 37° SSE 00:25:07 10° E
STARLINK-1210 3.6 00:18:43 10° W 00:22:47 55° SSW 00:26:51 10° ESE
COSMOS 2455 2.8 00:18:53 18° SSW 00:23:34 83° SE 00:29:38 10° NE
Cosmos 1745 Rocket 4.4 00:18:40 15° SSE 00:23:39 58° E 00:29:39 10° NNE
STARLINK-1200 3.5 00:21:00 10° W 00:25:10 82° S 00:29:20 10° E
Starlink 7 placeholder 3.4 00:27:40 23° ESE 00:27:40 23° ESE 00:28:47 10° E
STARLINK-1219 3.7 00:23:41 10° W 00:27:44 53° SSW 00:31:47 10° SE
MOZ.5/SAFIR/RUBIN 5/SL-8 3.9 00:25:18 12° SSE 00:29:31 74° ENE 00:34:10 10° NNW
Cosmos 1437 2.9 00:28:12 25° S 00:29:43 56° E 00:32:41 10° NNE
STARLINK-1192 3.5 00:26:00 10° W 00:30:10 81° S 00:34:19 10° E
Cosmos 1455 3.6 00:28:22 10° N 00:31:51 35° ENE 00:35:19 10° SE
STARLINK-1211 3.7 00:28:41 10° W 00:32:43 51° SSW 00:36:44 10° SE
Cosmos 1898 Rocket 4.1 00:28:38 10° NNW 00:33:57 60° ENE 00:39:12 10° SE
ADEOS II 4.3 00:30:44 10° NE 00:34:15 18° E 00:37:47 10° SE
Meteor 1-29 3.0 00:31:17 10° N 00:34:40 65° WNW 00:36:37 23° SSW
STARLINK-1244 3.5 00:30:59 10° W 00:35:08 80° S 00:39:17 10° E
Spot 1 4.4 00:32:34 18° S 00:35:59 63° WSW 00:40:56 10° NNW
STARLINK-1245 3.8 00:33:39 10° W 00:37:40 49° SSW 00:41:40 10° SE
Cosmos 2228 4.5 00:34:35 10° NW 00:37:58 23° W 00:40:15 15° SW
CZ-4 R/B 4.4 00:33:42 10° N 00:38:24 50° WNW 00:41:59 16° SW
SL-4 R/B 2.7 00:35:31 16° SW 00:39:11 47° SSE 00:43:44 10° E
STARLINK-1138 3.5 00:35:56 10° W 00:40:05 79° S 00:44:15 10° ESE
Cosmos 1937 Rocket 4.3 00:35:56 10° NNW 00:41:04 52° ENE 00:46:12 10° SE
STARLINK-1233 3.8 00:38:38 10° W 00:42:37 46° SSW 00:46:36 10° SE
CZ-2D R/B 2.9 00:37:39 10° NNE 00:42:41 43° E 00:47:17 12° SSE
SJ 16-02 1.5 00:40:14 10° NNW 00:44:42 74° ENE 00:49:07 10° SSE
STARLINK-1143 3.5 00:40:55 10° W 00:45:03 77° S 00:49:13 10° ESE
Resurs 1-4 Rocket 2.8 00:40:39 10° NNE 00:45:46 47° E 00:50:27 12° S
Cosmos 1174 3.7 00:44:39 17° SW 00:47:05 67° NW 00:51:03 10° NE
STARLINK-1204 3.9 00:43:38 10° W 00:47:36 44° SSW 00:51:33 10° SE
Cosmos 2058 Rocket 4.0 00:44:56 10° NNW 00:48:54 33° W 00:51:37 17° SW
STARLINK-1203 3.5 00:44:58 10° W 00:49:11 76° S 00:53:23 10° ESE
DELTA 2 DEB (DPAF) 4.3 00:46:20 17° S 00:49:44 61° WSW 00:54:12 10° NNW
STARLINK-1241 3.5 00:45:54 10° W 00:50:03 76° S 00:54:12 10° ESE
Cosmos 921 Rocket 3.0 00:47:04 19° SSW 00:50:04 88° ESE 00:54:27 10° NNE
ERBS 3.1 00:47:13 10° WNW 00:50:29 53° NNE 00:53:46 10° E
STARLINK-29 3.7 00:49:32 23° SSW 00:50:55 34° SSE 00:53:52 10° E
STARLINK-1238 3.9 00:48:38 10° W 00:52:34 42° SSW 00:56:29 10° SE
Cosmos 2227 Rocket 2.2 00:47:01 10° NNW 00:52:45 85° WSW 00:58:25 10° SSE
STARLINK-1239 3.5 00:50:52 10° W 00:55:02 74° S 00:59:10 10° ESE
Cosmos 1697 Rocket 4.3 00:52:36 10° SSE 00:57:05 25° ESE 01:01:36 10° NE
Cosmos 2369 Rocket 3.9 00:52:28 10° W 00:57:16 27° NW 01:02:04 10° NNE
STARLINK-1201 4.0 00:53:37 10° W 00:57:31 40° SSW 01:01:25 10° SE
BREEZE-M R/B 3.9 00:56:16 17° SSW 00:58:34 25° SSE 01:01:14 10° ESE
Meteor 2-1 Rocket 4.2 00:53:12 10° NNW 00:58:44 76° W 01:04:04 11° S
STARLINK-1240 3.5 00:55:52 10° W 01:00:01 73° S 01:04:09 10° ESE
Cosmos 1943 Rocket 4.3 00:56:00 10° W 01:00:21 23° NNW 01:04:46 10° NNE
GEOS 3 Rocket 4.5 00:58:31 14° S 01:02:14 31° WSW 01:06:54 10° WNW
SL-19 R/B 4.3 00:56:56 10° NNE 01:02:18 72° WNW 01:07:01 15° SSW
STARLINK-1206 4.1 00:58:36 10° W 01:02:28 38° SSW 01:06:19 10° SE
FALCON 9 R/B 4.2 00:57:53 15° SSW 01:03:00 26° SSE 01:18:23 10° ESE
Cosmos 2285 Rocket 4.4 00:56:46 10° NNW 01:03:12 70° ENE 01:09:31 10° SE
NPP 4.1 00:59:32 10° NNE 01:04:52 57° E 01:09:57 11° S
STARLINK-1216 3.5 01:00:50 10° W 01:04:58 71° SSW 01:09:06 10° ESE
ATLAS CENTAUR R/B 1.7 01:01:34 12° WSW 01:05:31 62° NW 01:09:32 10° NE
Cosmos 1626 Rocket 3.6 01:02:56 17° SSW 01:06:16 74° WNW 01:10:38 10° N
Meteor 1-24 Rocket 4.2 01:03:03 15° SW 01:07:20 48° WNW 01:12:39 10° N
STARLINK-1205 4.1 01:03:36 10° W 01:07:25 36° SSW 01:11:14 10° SE
CZ-4B R/B 4.1 01:03:22 10° NNE 01:08:25 52° E 01:13:30 10° S
Cosmos 1386 Rocket 4.5 01:04:08 14° SSW 01:09:22 79° W 01:15:37 10° N
Cosmos 220 Rocket 4.1 01:06:00 16° SSW 01:09:28 84° WNW 01:13:57 10° NNE
STARLINK-1237 3.5 01:05:48 10° W 01:09:57 69° SSW 01:14:04 10° ESE
Meteor 2-10 Rocket 3.5 01:05:57 10° NNW 01:11:20 81° W 01:16:29 10° S
Cosmos 1703 4.4 01:07:51 10° SSE 01:11:32 38° E 01:15:13 10° NNE
STARLINK-1218 4.2 01:08:35 10° W 01:12:21 34° SSW 01:16:07 10° SE
Cosmos 1656 4.2 01:08:23 13° S 01:13:19 51° ESE 01:18:44 10° NE
Cosmos 1709 Rocket 4.1 01:07:36 11° S 01:13:29 74° E 01:19:38 10° NNE
Uosat 12 SS-18 rocket 4.5 01:09:18 10° NW 01:13:38 66° NE 01:18:00 10° ESE
SL-08 R/B 4.5 01:09:39 10° SE 01:14:04 43° ENE 01:18:27 10° N
CZ-4C R/B 3.6 01:10:34 10° S 01:14:47 26° ESE 01:19:39 10° ENE
STARLINK-1202 3.5 01:10:48 10° W 01:14:56 67° SSW 01:19:03 10° ESE
FALCON 9 DEB 3.9 01:13:20 17° SSW 01:15:31 36° SSE 01:18:43 10° E
Cosmos 990 Rocket 4.0 01:11:16 10° NNW 01:16:32 70° WSW 01:21:45 10° SSE
STARLINK-1254 4.3 01:13:34 10° W 01:17:18 33° SSW 01:21:02 10° SSE
RESURS DK-1 2.7 01:15:35 13° SW 01:19:08 59° NW 01:23:15 10° NNE
ATLAS 3B R/B 3.9 01:16:45 10° WNW 01:21:39 21° WSW 01:25:57 12° SSW
STARLINK-1231 4.3 01:18:35 10° W 01:22:16 31° SSW 01:25:56 10° SSE
Cosmos 1812 Rocket 4.1 01:20:09 10° NNW 01:24:27 45° W 01:28:18 12° SSW
NOSS 3-4 (A) 4.1 01:18:38 10° WSW 01:24:38 56° NNW 01:31:11 10° NE
NOSS 3-4 (C) 4.1 01:18:43 10° WSW 01:24:44 56° NNW 01:31:18 10° NE
STARLINK-1246 3.6 01:20:45 10° W 01:24:51 63° SSW 01:28:57 10° ESE
CZ-4C R/B 4.2 01:22:03 14° SSW 01:25:27 39° W 01:29:36 10° NNW
STARLINK-52 3.3 01:24:32 14° SW 01:27:06 48° SSE 01:30:13 10° E
STARLINK-1232 4.4 01:23:35 10° W 01:27:12 29° SSW 01:30:49 10° SSE
Cosmos 1626 3.9 01:25:23 10° WSW 01:28:16 22° WNW 01:31:14 10° NNW
STARLINK-1352 4.5 01:26:52 14° SSW 01:29:15 27° SSE 01:32:22 10° E
STARLINK-1224 3.6 01:25:44 10° W 01:29:50 61° SSW 01:33:55 10° ESE
STARLINK-1368 4.4 01:29:19 14° SSW 01:31:47 28° SSE 01:34:55 10° E
STARLINK-1208 4.5 01:28:36 10° W 01:32:09 28° SW 01:35:42 10° SSE
STARLINK-1369 4.4 01:31:46 14° SSW 01:34:19 29° SSE 01:37:29 10° E
STARLINK-1225 3.6 01:30:42 10° W 01:34:47 58° SSW 01:38:52 10° ESE
STARLINK-1372 4.3 01:34:14 13° SSW 01:36:52 30° SSE 01:40:05 10° E
Cosmos 1825 Rocket 3.6 01:35:07 10° S 01:39:26 79° E 01:43:48 10° NNE
STARLINK-1378 4.3 01:36:42 13° SSW 01:39:26 31° SSE 01:42:40 10° E
STARLINK-1230 3.7 01:35:41 10° W 01:39:45 56° SSW 01:43:49 10° ESE
Cosmos-2242 3.0 01:35:36 10° NNW 01:39:51 66° W 01:44:04 10° S
Cosmos 1602 Rocket 4.1 01:36:14 12° SW 01:40:01 46° WNW 01:44:12 10° N
Meteor 1-21 Rocket 4.3 01:34:55 11° SSW 01:40:22 77° WNW 01:46:08 10° NNE
STARLINK-1329 4.3 01:38:25 13° SSW 01:41:13 32° SSE 01:44:29 10° E
Cosmos 2221 4.2 01:37:47 10° N 01:41:48 36° ENE 01:45:49 10° SE
STARLINK-1379 4.3 01:39:11 13° SSW 01:42:01 32° SSE 01:45:17 10° E
IRS-1D 3.9 01:37:50 10° NNE 01:43:12 69° ESE 01:48:28 10° S
STARLINK-1365 4.2 01:40:26 12° SW 01:43:22 33° SSE 01:46:41 10° E
STARLINK-1362 4.2 01:40:58 12° SSW 01:43:52 33° SSE 01:47:09 10° E
ERS-2 3.1 01:41:00 10° SE 01:44:33 49° ENE 01:48:08 10° N
STARLINK-1243 3.7 01:40:40 10° W 01:44:43 54° SSW 01:48:46 10° SE
BREEZE M DEB (TANK) 4.0 01:44:01 10° WSW 01:45:55 18° SSW 01:49:04 10° SSE
STARLINK-1373 4.2 01:43:28 12° SW 01:46:27 34° SSE 01:49:47 10° E
Cosmos 2219 4.2 01:43:20 10° NW 01:48:04 28° WSW 01:52:47 10° SSW
STARLINK-1390 4.2 01:45:52 12° SW 01:48:56 35° SSE 01:52:16 10° E
Cosmos 1763 Rocket 3.6 01:44:32 10° SSW 01:49:38 75° ESE 01:54:43 10° NNE
STARLINK-1236 3.8 01:45:40 10° W 01:49:42 52° SSW 01:53:44 10° SE
Cosmos 1980 Rocket 3.5 01:45:11 10° S 01:50:08 33° ESE 01:55:09 10° NE
ATLAS CENTAUR R/B 3.2 01:47:41 10° W 01:50:10 21° SSW 01:54:26 10° SSE
STARLINK-1320 3.7 01:50:50 11° SW 01:53:31 34° SSE 01:56:24 10° E
STARLINK-1322 3.7 01:51:09 11° SW 01:53:51 35° SSE 01:56:45 10° E
ATLAS 2AS CENTAUR R/B 3.8 01:46:14 10° W 01:54:00 51° NNW 02:01:33 10° NE
STARLINK-1324 3.7 01:51:29 11° SW 01:54:12 35° SSE 01:57:05 10° E
GP-B 3.3 01:50:04 10° N 01:54:27 58° W 01:58:48 10° SSW
STARLINK-1294 3.7 01:51:47 11° SW 01:54:31 35° SSE 01:57:25 10° E
STARLINK-1261 3.7 01:52:09 11° SW 01:54:52 35° SSE 01:57:46 10° E
STARLINK-1325 3.7 01:52:28 11° SW 01:55:12 35° SSE 01:58:06 10° E
STARLINK-1333 3.7 01:52:48 11° SW 01:55:33 35° SSE 01:58:27 10° E
Cosmos 2074 Rocket 4.4 01:49:38 10° S 01:55:50 65° E 02:02:05 10° NNE
STARLINK-1334 3.7 01:53:07 11° SW 01:55:53 35° SSE 01:58:47 10° E
STARLINK-1326 3.7 01:53:27 11° SW 01:56:14 36° SSE 01:59:08 10° E
STARLINK-1323 3.7 01:53:46 11° SW 01:56:33 36° SSE 01:59:28 10° E
STARLINK-1349 3.7 01:54:06 11° SW 01:56:54 36° SSE 01:59:48 10° E
STARLINK-1336 3.7 01:54:25 11° SW 01:57:14 36° SSE 02:00:08 10° E
STARLINK-1331 3.7 01:54:45 11° SW 01:57:34 36° SSE 02:00:29 10° E
STARLINK-1344 3.7 01:55:05 10° SW 01:57:55 36° SSE 02:00:50 10° E
STARLINK-60 2.9 01:54:51 10° W 01:58:03 78° S 02:01:16 10° E
STARLINK-1343 3.7 01:55:24 10° SW 01:58:14 36° SSE 02:01:10 10° E
STARLINK-1346 3.7 01:55:40 10° SW 01:58:34 37° SSE 02:01:32 10° E
STARLINK-1328 3.7 01:56:03 10° SW 01:58:54 37° SSE 02:01:50 10° E
Lacrosse 4 Rocket 1.6 01:54:49 10° NW 01:59:07 55° WSW 02:03:16 10° SSE
STARLINK-1354 3.7 01:56:22 10° SW 01:59:15 37° SSE 02:02:10 10° E
STARLINK-1347 3.6 01:56:41 10° SW 01:59:36 37° SSE 02:02:31 10° E
STARLINK-1269 3.9 01:55:36 10° W 01:59:36 47° SSW 02:03:35 10° SE
STARLINK-1357 3.6 01:57:01 10° SW 01:59:55 37° SSE 02:02:50 10° E
STARLINK-1335 3.6 01:57:23 10° SW 02:00:17 37° SSE 02:03:14 10° E
Cosmos 2297 Rocket 3.2 01:55:40 10° NW 02:00:23 28° WSW 02:05:04 10° SSW
Starlink 7 placeholder 1.6 01:58:37 10° W 02:00:34 74° S 02:02:35 10° E
STARLINK-1327 3.6 01:57:41 10° SW 02:00:37 37° SSE 02:03:32 10° E
STARLINK-1340 3.6 01:58:00 10° SW 02:00:56 38° SSE 02:03:52 10° E
STARLINK-1356 3.6 01:58:20 10° SW 02:01:16 38° SSE 02:04:12 10° E
STARLINK-1345 3.6 01:58:41 10° SW 02:01:36 38° SSE 02:04:33 10° E
STARLINK-1355 3.6 01:59:01 10° SW 02:01:56 38° SSE 02:04:53 10° E
STARLINK-1321 3.6 01:59:22 10° SW 02:02:17 38° SSE 02:05:14 10° E
Cosmos 2150 Rocket 4.2 01:57:15 10° NNW 02:02:30 78° ENE 02:07:39 10° SSE
STARLINK-1358 3.6 01:59:41 10° SW 02:02:37 38° SSE 02:05:34 10° E
STARLINK-1332 3.6 02:00:03 10° SW 02:03:00 38° SSE 02:05:56 10° E
STARLINK-1348 3.6 02:00:22 10° SW 02:03:18 39° SSE 02:06:15 10° E
STARLINK-1330 3.6 02:00:41 10° SW 02:03:37 39° SSE 02:06:35 10° E
STARLINK-1363 3.6 02:01:03 10° SW 02:03:59 39° SSE 02:06:56 10° E
STARLINK-1337 3.6 02:01:22 10° SW 02:04:19 39° SSE 02:07:17 10° E
SL-16 R/B 3.4 01:59:03 10° SSW 02:04:26 31° W 02:09:51 10° NNW
STARLINK-1200 3.9 02:00:36 10° W 02:04:35 45° SSW 02:08:32 10° SE
STARLINK-1342 3.6 02:01:41 10° SW 02:04:37 39° SSE 02:07:35 10° E
STARLINK-1364 3.6 02:02:02 10° SW 02:04:58 39° SSE 02:07:56 10° E
STARLINK-1376 3.5 02:02:23 10° SW 02:05:19 39° SSE 02:08:16 10° E
STARLINK-1360 3.5 02:02:43 10° SW 02:05:39 40° SSE 02:08:37 10° E
STARLINK-1361 3.5 02:03:02 10° SW 02:05:59 40° SSE 02:08:57 10° E
Cosmos 2082 4.1 02:00:47 10° NW 02:06:08 44° WSW 02:11:27 10° S
STARLINK-1367 3.6 02:03:19 10° SW 02:06:18 40° SSE 02:09:18 10° E
STARLINK-1366 3.5 02:03:44 10° SW 02:06:41 40° SSE 02:09:39 10° E
Cosmos 1455 3.5 02:04:16 10° NW 02:07:19 24° W 02:10:21 10° SW
STARLINK-1192 4.0 02:05:36 10° W 02:09:33 43° SSW 02:13:28 10° SE
Cosmos 2184 Rocket 4.2 02:03:25 10° S 02:09:34 76° E 02:15:45 10° NNE
ARIANE 5 R/B 3.1 02:04:33 10° NNE 02:09:35 58° ESE 02:14:32 10° S
Cosmos 2084 Rocket 3.6 02:05:19 10° NW 02:09:47 89° NNE 02:14:18 10° SE
COSMOS 2455 4.1 02:04:37 10° W 02:10:07 35° NNW 02:15:40 10° NE
Cosmos 1328 4.0 02:06:41 10° SSW 02:10:37 58° WNW 02:14:34 10° N
Cosmos 2263 Rocket 2.7 02:07:36 10° NNW 02:13:15 69° NE 02:18:49 10° SE
Cosmos 2084 4.0 02:09:03 10° WSW 02:13:27 58° NW 02:17:54 10° NE
STARLINK-1244 4.0 02:10:35 10° W 02:14:29 41° SSW 02:18:23 10° SE
AQUA 4.3 02:09:54 10° N 02:14:31 51° WNW 02:19:07 10° SW
ADEOS II 2.2 02:09:23 10° NNE 02:14:41 87° WNW 02:19:57 10° SSW
Meteor 1-28 Rocket 3.2 02:11:09 10° SSE 02:14:55 85° WSW 02:18:43 10° NNW
Cosmos 2278 4.2 02:11:11 10° SSW 02:16:42 58° ESE 02:22:16 10° NE
